Wind_Speed
36 33 34 36 34 33 33 34 41 47 55 61 66 69 73 78 80 88 88 90 89 90 91 88 87 82 76 73 71 65 62 63 58 53 48 45 43 42 40 38 36 36 35 36 35 32 32 27 24 22 22 24 25 32
38 34 33 36 35 32 33 32 36 42 49 57 62 64 67 74 79 80 87 90 88 89 91 90 88 86 84 79 74 67 72 68 64 60 57 54 50 48 44 46 45 44 42 37 37 37 33 32 29 28 21 21 23 29
37 34 33 35 35 33 32 32 33 37 44 51 57 61 64 67 72 77 80 84 89 88 89 89 91 88 86 86 81 77 74 68 69 69 64 62 58 55 53 55 52 49 45 45 40 40 33 35 34 34 30 23 23 25
35 33 34 33 34 34 33 33 32 34 39 46 51 55 58 62 65 68 76 79 81 89 89 87 89 88 88 86 85 81 75 75 75 75 71 68 65 64 61 60 56 55 51 52 47 42 40 36 36 38 38 34 25 24
33 34 35 34 34 34 34 33 33 32 37 42 47 52 53 56 59 60 63 71 77 78 83 90 87 87 87 87 87 84 84 82 78 77 76 75 74 65 67 67 65 65 58 56 53 43 45 42 45 43 41 41 36 30
33 34 36 36 35 35 34 32 32 31 33 40 45 50 52 52 55 56 57 58 63 70 75 78 87 90 85 85 85 87 86 85 84 83 78 78 74 74 77 76 73 69 63 64 60 58 56 52 50 46 45 44 43 41
35 37 38 37 36 36 35 33 31 32 31 37 43 48 51 51 49 49 53 53 56 59 65 72 78 83 88 85 83 84 85 89 88 87 85 83 80 79 80 80 76 73 70 70 68 66 63 59 56 55 51 49 46 46
40 40 40 39 37 37 36 34 31 31 30 34 40 46 50 49 46 44 46 47 48 51 54 60 67 71 77 84 85 80 79 83 88 89 87 86 85 86 84 85 83 80 75 77 75 71 70 66 65 59 56 55 54 50
45 45 45 42 40 39 38 35 32 31 29 32 38 44 47 48 45 43 43 43 43 42 42 47 52 59 64 69 76 82 83 80 80 85 88 88 88 87 89 89 88 83 80 84 79 77 75 72 67 64 65 61 57 57
50 50 49 46 44 41 38 34 31 30 28 31 37 42 46 46 43 39 39 39 38 36 38 41 44 47 52 58 61 66 74 80 83 81 81 84 89 91 92 91 90 88 88 89 85 85 83 77 73 72 70 70 64 62
45 48 47 44 42 40 35 31 31 30 29 32 37 41 42 42 39 38 34 32 31 31 32 34 37 40 44 48 52 56 60 65 72 79 83 84 83 84 88 91 94 94 93 92 90 88 88 85 82 81 79 73 71 68
37 40 41 41 39 33 30 30 31 29 31 33 37 38 39 38 35 31 28 26 27 28 29 31 34 36 37 39 43 45 49 53 55 62 67 75 80 86 87 87 88 89 92 95 96 95 94 90 86 85 83 79 79 75
28 32 32 32 31 28 27 31 29 30 34 36 38 38 37 34 30 27 26 24 23 24 25 26 28 30 31 31 33 35 38 41 46 49 53 58 61 68 76 81 85 87 89 89 89 89 90 91 91 91 90 90 85 80
21 22 23 24 25 29 31 29 31 34 36 38 38 38 35 32 31 30 28 26 24 24 24 24 23 23 23 23 23 23 25 29 32 37 41 45 48 50 54 59 64 70 74 78 82 85 87 87 86 87 89 91 90 87
20 22 24 26 29 30 30 33 36 38 40 40 38 37 35 36 34 32 30 30 30 29 28 27 25 24 21 19 16 13 12 14 17 21 24 26 29 34 39 44 48 52 55 58 62 69 74 79 82 84 85 84 84 84
25 26 27 28 29 31 35 39 42 43 43 41 39 39 38 37 36 36 35 35 34 32 32 30 27 25 25 23 21 17 15 13 9 7 12 15 15 18 24 29 31 34 37 40 45 50 54 59 62 68 74 79 81 82
24 26 28 32 36 40 43 45 46 44 42 41 42 42 41 41 41 41 39 38 36 34 33 33 31 28 24 21 18 15 12 9 12 11 10 6 1 5 8 12 16 17 19 22 27 31 35 41 46 54 60 64 65 68
29 32 36 39 42 45 47 46 46 44 45 46 46 45 46 45 44 42 39 38 38 36 32 29 26 24 20 18 15 11 8 8 8 5 4 6 8 8 6 4 3 5 7 9 12 17 21 26 32 39 44 50 53 58
34 38 41 44 46 47 46 46 47 50 49 50 50 49 47 47 43 40 40 40 36 31 28 28 23 20 17 15 11 8 5 4 3 1 1 1 3 6 8 11 11 9 6 5 6 7 10 14 18 23 27 31 35 39
40 43 45 46 47 46 47 51 51 51 52 52 51 50 49 45 43 42 40 36 31 27 25 23 20 16 13 10 7 5 5 3 2 2 3 4 4 4 5 7 8 11 13 14 12 11 10 10 10 12 15 18 22 26
45 47 47 47 49 52 54 54 54 54 52 51 51 47 45 44 42 39 36 32 28 25 22 19 16 13 9 6 5 4 5 6 7 6 6 6 9 7 6 7 8 8 10 11 11 9 10 9 9 8 9 10 12 14
46 48 51 52 54 53 54 53 52 52 52 50 46 45 42 39 38 37 32 27 23 19 16 15 14 10 6 4 4 6 8 10 11 10 12 14 16 15 15 15 16 14 13 13 12 11 8 6 4 4 6 7 9 10
49 51 51 52 52 53 53 53 52 50 48 45 43 41 40 39 36 32 27 22 18 16 14 12 10 7 5 6 10 14 15 14 16 17 18 18 17 16 16 15 15 15 15 14 14 13 12 10 8 7 6 5 5 5
51 53 54 54 53 52 51 50 47 45 43 41 40 38 36 33 29 25 21 18 15 13 11 9 5 7 11 14 16 18 18 18 18 16 16 14 13 11 11 10 9 8 8 7 6 5 3 2 0 1 3 4 7 9
52 51 50 49 49 48 47 44 41 40 38 37 34 31 28 26 23 19 17 15 13 12 9 9 13 16 17 18 19 20 18 16 14 12 11 9 8 6 4 3 2 2 3 3 3 4 6 6 7 9 9 10 11 13
48 47 46 45 43 42 41 38 36 34 32 29 26 23 21 20 19 17 16 14 15 17 20 21 22 21 20 17 16 16 15 12 9 7 5 3 1 2 4 5 5 6 7 7 8 8 8 7 8 9 11 12 15 19
43 42 40 39 38 36 34 31 28 25 23 20 18 17 17 17 17 19 23 25 27 26 24 24 24 22 21 18 14 12 10 9 8 6 5 5 7 7 6 9 11 11 10 9 8 8 10 10 11 13 16 19 23 26
39 37 35 34 32 30 27 24 21 19 20 21 23 25 25 25 26 28 29 29 30 28 26 24 22 21 18 15 12 11 9 8 8 9 10 10 11 11 12 11 12 11 11 12 13 13 15 16 18 20 23 26 29 30
34 33 30 28 26 23 22 22 24 26 30 31 28 26 26 25 25 30 27 23 23 19 17 18 17 15 14 13 12 11 12 13 14 15 14 14 15 14 14 14 14 15 15 16 17 19 21 23 26 29 30 32 32 31
28 27 26 25 24 26 26 25 25 24 26 27 27 26 27 25 23 23 23 21 19 17 16 15 14 13 14 13 13 14 16 17 15 14 16 18 18 19 18 18 19 20 20 20 21 23 26 29 31 32 33 31 28 20
23 23 24 24 24 25 25 25 24 23 21 22 22 24 24 22 20 19 19 18 17 15 14 14 13 14 14 15 16 18 18 18 19 21 21 21 23 22 21 22 23 24 24 24 25 26 28 28 28 26 23 19 14 14
19 20 22 23 22 21 22 22 21 21 22 22 23 22 20 18 17 17 17 17 16 16 16 16 16 17 19 20 21 24 25 25 27 27 29 30 28 27 28 29 28 27 26 25 24 24 21 19 17 13 11 12 15 18
19 18 18 17 17 19 19 18 18 17 17 18 18 19 18 18 18 16 16 16 16 16 18 21 22 23 26 27 29 31 29 31 31 32 33 32 30 29 29 28 27 27 28 28 27 25 22 21 20 19 18 18 20 21
Wind_Direction
285 276 261 255 255 254 253 246 238 232 228 225 224 223 222 223 223 222 222 223 225 225 226 227 228 229 230 228 227 223 226 228 227 228 229 229 227 222 224 225 220 224 225 227 230 231 244 253 248 242 232 241 234 235
284 275 259 252 254 255 255 252 242 235 228 225 222 222 222 222 223 223 223 223 224 225 226 227 227 228 229 230 229 223 226 226 226 229 230 231 230 227 226 229 226 229 230 234 234 233 235 240 252 257 246 241 245 252
279 268 257 252 252 255 255 255 247 236 230 225 223 223 222 222 222 223 224 224 225 226 227 227 228 227 228 230 230 229 228 226 228 230 230 230 232 232 231 234 232 234 235 238 235 236 236 238 243 251 261 249 246 252
270 260 255 251 251 252 254 254 252 237 231 225 223 223 221 221 221 223 224 225 226 226 227 228 228 228 228 228 229 230 228 227 227 228 230 231 231 232 234 237 238 238 241 241 239 235 236 240 244 246 254 261 250 250
262 255 252 250 250 250 251 252 253 241 230 225 222 221 222 220 219 221 223 225 226 228 228 227 228 228 228 229 229 228 229 230 229 230 230 231 233 233 236 238 238 238 239 244 243 240 239 240 243 246 247 253 260 257
255 251 249 249 247 249 248 249 247 245 231 225 221 218 220 220 220 221 221 223 226 228 228 228 228 229 230 229 228 228 228 230 231 231 232 233 234 234 235 237 239 240 239 242 244 244 243 241 243 246 249 250 253 259
252 249 247 244 243 245 247 246 244 245 234 224 219 216 217 219 220 222 222 224 226 228 229 228 227 227 228 230 229 229 229 229 230 232 234 235 233 235 236 238 238 240 240 242 243 245 246 246 246 246 247 251 254 256
244 244 243 243 242 242 244 245 243 243 234 224 217 214 213 216 219 218 219 223 227 228 229 229 228 228 229 229 231 231 231 230 230 231 232 234 234 235 237 239 239 238 238 242 244 245 246 246 247 248 249 248 249 252
239 239 240 240 240 240 241 243 241 240 231 221 214 211 210 212 215 216 220 224 227 228 228 227 226 225 227 229 230 231 232 232 232 233 233 234 235 235 237 239 241 240 241 242 243 245 246 246 247 248 249 249 248 248
236 237 238 239 238 239 238 239 238 236 227 217 209 206 207 208 212 217 221 227 229 229 227 225 223 222 223 225 227 229 230 232 233 234 234 235 236 237 238 240 241 242 242 243 242 244 246 247 246 246 248 249 248 248
238 238 238 239 239 239 237 234 235 229 221 210 203 201 202 205 207 214 221 225 225 225 223 220 218 218 218 220 222 225 227 230 233 235 236 238 239 239 240 241 242 243 243 243 244 245 247 247 246 246 247 248 247 246
233 233 234 235 237 235 230 228 228 219 210 200 195 192 194 197 203 208 211 214 215 216 214 213 213 213 213 215 219 221 224 228 230 234 236 238 239 240 243 244 244 244 244 245 245 246 246 246 245 245 245 246 246 247
223 224 225 226 227 219 219 221 213 204 195 188 184 183 186 191 192 193 195 193 190 187 188 190 193 196 199 205 210 215 219 224 228 232 234 238 241 241 243 245 246 246 246 245 245 245 246 246 245 247 246 246 246 247
210 202 200 199 202 204 205 200 194 186 180 177 174 176 178 180 179 177 174 170 166 161 159 161 167 174 181 190 198 206 214 222 226 231 234 238 242 245 247 247 248 249 249 248 248 247 246 244 243 243 245 245 245 246
178 179 178 181 186 186 182 181 176 170 169 166 169 171 172 171 167 165 162 157 152 150 148 147 150 154 159 166 176 185 200 220 230 237 242 246 249 252 254 253 252 250 250 248 245 244 243 243 242 242 242 243 244 244
173 174 176 176 172 170 170 166 163 162 161 163 165 164 162 160 157 154 149 147 146 143 141 141 141 137 131 126 121 114 106 103 134 183 221 231 239 249 254 254 253 253 251 247 244 242 240 240 239 239 240 241 241 242
161 162 163 161 160 160 158 157 157 156 158 157 157 156 154 151 150 148 146 143 140 141 142 142 137 133 129 127 124 120 113 116 103 85 73 75 217 265 270 267 263 260 252 248 245 241 237 234 231 232 232 238 237 238
153 153 152 153 152 153 152 151 151 152 151 152 151 148 148 148 145 142 141 143 143 144 143 138 132 131 134 129 126 113 100 82 70 63 41 52 37 47 65 57 333 284 252 239 232 229 226 227 228 230 232 233 234 237
145 144 146 144 146 146 145 146 148 147 148 147 146 146 146 143 140 143 144 144 146 145 139 130 135 134 128 128 120 108 84 71 95 91 118 137 71 58 51 58 63 69 90 124 150 174 192 204 212 218 221 225 228 232
138 136 137 138 137 140 141 143 143 145 146 144 144 144 141 142 142 143 146 147 147 141 135 139 139 136 131 122 106 74 55 77 136 131 133 133 113 90 72 69 71 71 72 75 87 105 125 145 165 182 197 209 216 222
127 131 132 133 137 139 140 142 144 144 142 142 140 140 141 140 142 144 145 145 138 138 144 144 144 140 133 114 76 45 93 109 126 112 123 119 113 103 96 95 94 93 93 100 101 105 113 120 128 150 168 179 194 207
127 129 133 137 139 139 140 139 138 138 139 139 140 141 142 143 145 145 144 142 142 145 145 145 144 141 127 82 74 110 116 117 117 119 118 113 103 100 95 92 91 93 97 96 98 100 104 114 134 167 184 194 204 213
129 131 132 132 133 134 134 135 136 137 138 138 137 139 142 145 146 148 149 149 149 149 150 149 140 130 107 119 127 125 121 125 127 125 124 117 108 103 99 93 91 91 89 89 89 88 88 89 93 104 120 142 170 196
125 127 128 128 130 132 134 134 135 137 138 140 142 144 146 148 151 154 155 154 157 165 161 157 143 130 125 129 133 136 135 137 134 129 120 112 108 103 97 95 90 86 86 85 82 83 91 98 143 269 265 262 261 261
123 125 127 129 131 133 133 133 135 138 141 144 147 149 154 157 161 162 167 173 177 175 172 154 142 144 148 151 154 152 153 150 143 133 131 131 129 120 96 66 16 331 314 294 283 277 276 277 276 275 276 277 281 282
123 125 128 130 132 134 136 137 138 141 146 150 154 158 163 169 176 181 179 179 167 155 151 151 153 159 162 163 160 154 160 159 152 147 160 159 172 286 297 297 296 289 290 279 277 278 277 276 278 280 284 289 294 295
126 127 128 129 132 134 137 140 142 146 149 153 160 170 175 182 177 168 156 151 150 155 161 164 167 170 175 172 168 170 174 176 183 195 222 258 280 284 291 308 309 300 289 286 279 277 284 285 291 295 295 296 297 299
128 130 130 131 133 135 136 138 142 147 151 150 145 143 145 144 147 154 159 161 161 165 172 174 180 178 175 179 185 189 192 210 229 244 261 278 291 284 286 298 308 300 289 285 287 287 291 290 292 296 297 299 302 304
131 131 132 132 131 130 129 130 135 138 134 131 136 139 144 151 154 161 168 171 172 180 180 173 178 184 192 206 209 216 226 239 251 264 274 289 295 292 285 292 300 299 293 289 288 290 294 295 295 295 295 297 300 303
133 132 132 131 129 128 125 128 131 129 134 141 150 158 159 158 162 167 172 173 176 181 188 195 200 206 213 226 237 247 257 270 277 289 295 298 297 295 289 290 296 299 299 293 291 292 296 298 296 293 293 293 295 290
138 141 142 140 137 138 139 139 145 150 153 161 164 165 169 174 177 178 179 183 187 193 202 212 222 231 240 248 257 264 272 275 283 293 295 299 302 297 294 293 293 295 297 298 297 295 299 299 297 294 291 286 277 281
154 154 154 155 154 156 158 159 161 164 169 176 180 184 186 191 195 197 201 208 213 219 226 235 241 249 255 261 267 273 277 280 291 293 300 303 300 298 296 295 293 291 291 294 294 302 305 309 313 305 291 285 290 297
160 162 165 169 168 163 167 174 176 176 176 183 189 193 201 210 212 217 220 226 232 238 245 248 250 257 267 272 277 282 287 291 294 295 296 296 296 295 294 293 291 289 291 293 293 295 292 292 292 286 285 290 295 300
Height
10430 10428 10429 10431 10431 10432 10433 10435 10437 10443 10450 10459 10468 10479 10491 10503 10515 10528 10539 10551 10564 10579 10590 10605 10617 10630 10640 10651 10662 10677 10683 10686 10696 10703 10710 10715 10720 10726 10731 10738 10744 10748 10752 10756 10758 10763 10765 10767 10769 10773 10776 10780 10787 10788
10418 10416 10417 10419 10420 10421 10422 10424 10426 10429 10436 10444 10454 10465 10475 10486 10498 10509 10522 10534 10546 10559 10572 10587 10599 10612 10624 10636 10644 10664 10663 10674 10684 10693 10698 10704 10711 10717 10725 10728 10732 10737 10742 10749 10751 10754 10759 10761 10763 10765 10769 10771 10773 10774
10405 10404 10405 10407 10409 10411 10412 10414 10416 10418 10423 10431 10441 10451 10460 10470 10481 10493 10505 10517 10529 10541 10554 10568 10581 10592 10605 10617 10632 10639 10651 10671 10672 10678 10685 10692 10699 10706 10713 10714 10721 10727 10733 10736 10743 10744 10753 10754 10757 10759 10760 10763 10765 10767
10393 10393 10394 10396 10399 10401 10403 10404 10406 10409 10413 10419 10428 10437 10447 10457 10467 10478 10489 10500 10511 10523 10536 10549 10561 10574 10586 10599 10611 10626 10641 10646 10654 10660 10670 10678 10686 10691 10698 10702 10712 10716 10724 10724 10731 10737 10742 10747 10749 10750 10752 10754 10758 10761
10382 10382 10383 10386 10388 10391 10393 10395 10396 10399 10403 10409 10416 10425 10435 10445 10454 10464 10474 10485 10495 10506 10518 10530 10542 10555 10568 10581 10594 10608 10619 10629 10638 10647 10655 10661 10667 10684 10685 10688 10695 10698 10710 10714 10718 10731 10733 10737 10736 10739 10744 10746 10750 10753
10371 10371 10373 10375 10378 10381 10383 10385 10388 10389 10394 10399 10406 10415 10425 10434 10444 10453 10462 10471 10481 10490 10501 10512 10524 10537 10549 10562 10574 10588 10600 10611 10621 10628 10639 10644 10659 10664 10664 10669 10677 10686 10697 10699 10706 10712 10716 10722 10726 10731 10734 10738 10741 10744
10359 10360 10362 10364 10368 10371 10373 10375 10378 10381 10385 10390 10397 10406 10416 10425 10434 10443 10451 10460 10468 10477 10485 10495 10506 10518 10531 10543 10556 10568 10580 10590 10601 10611 10621 10629 10638 10642 10649 10653 10664 10672 10680 10683 10689 10694 10700 10709 10716 10718 10723 10728 10732 10734
10346 10347 10350 10353 10357 10360 10362 10366 10369 10372 10377 10382 10389 10397 10407 10417 10426 10433 10442 10450 10457 10464 10472 10481 10491 10504 10515 10527 10539 10551 10562 10572 10582 10591 10600 10609 10619 10624 10630 10634 10642 10652 10664 10664 10668 10678 10684 10693 10697 10708 10714 10716 10720 10724
10329 10332 10336 10340 10344 10348 10352 10356 10360 10363 10369 10375 10381 10390 10400 10410 10418 10426 10434 10441 10448 10456 10463 10471 10479 10488 10500 10510 10520 10532 10543 10553 10563 10572 10582 10590 10598 10607 10610 10616 10621 10635 10648 10645 10656 10661 10665 10675 10687 10693 10694 10700 10707 10710
10312 10316 10320 10326 10332 10337 10342 10348 10352 10356 10362 10368 10375 10384 10394 10404 10413 10421 10428 10435 10441 10448 10454 10461 10469 10478 10488 10496 10505 10516 10525 10535 10545 10554 10562 10570 10578 10585 10590 10598 10605 10614 10621 10626 10636 10640 10645 10659 10669 10671 10678 10683 10690 10695
10296 10302 10308 10314 10320 10326 10334 10340 10344 10349 10356 10362 10370 10379 10389 10399 10408 10416 10423 10428 10435 10440 10446 10453 10461 10469 10477 10486 10494 10502 10510 10518 10527 10536 10545 10552 10559 10566 10571 10577 10583 10591 10598 10604 10613 10620 10624 10636 10647 10652 10658 10665 10672 10677
10282 10289 10295 10303 10309 10317 10325 10332 10337 10344 10351 10358 10367 10376 10386 10397 10405 10412 10419 10424 10429 10434 10440 10446 10454 10462 10471 10479 10486 10495 10503 10509 10517 10521 10529 10534 10542 10543 10550 10557 10563 10569 10575 10580 10587 10596 10603 10613 10623 10628 10637 10644 10650 10660
10272 10279 10286 10294 10301 10309 10318 10324 10332 10340 10347 10356 10365 10375 10386 10395 10403 10410 10415 10421 10426 10430 10436 10443 10450 10458 10466 10474 10481 10488 10494 10501 10505 10511 10515 10518 10525 10528 10530 10535 10540 10545 10551 10556 10562 10570 10579 10588 10599 10603 10613 10620 10630 10637
10267 10273 10280 10288 10296 10304 10311 10320 10329 10338 10347 10356 10365 10375 10385 10393 10401 10408 10414 10420 10426 10433 10439 10445 10451 10459 10465 10472 10478 10484 10489 10492 10496 10500 10503 10505 10509 10513 10515 10517 10519 10521 10526 10532 10538 10544 10552 10561 10571 10579 10584 10593 10606 10617
10265 10272 10278 10285 10292 10300 10309 10319 10328 10338 10348 10357 10367 10376 10385 10393 10401 10409 10416 10423 10429 10436 10442 10448 10454 10461 10467 10472 10478 10482 10486 10488 10490 10493 10496 10498 10499 10500 10501 10501 10501 10503 10505 10508 10512 10516 10523 10532 10543 10553 10562 10573 10581 10592
10263 10270 10277 10284 10292 10301 10311 10321 10330 10340 10349 10358 10367 10377 10387 10396 10404 10412 10420 10428 10434 10440 10446 10453 10458 10464 10470 10475 10479 10482 10485 10487 10488 10489 10491 10492 10492 10491 10490 10489 10489 10489 10489 10490 10493 10496 10502 10509 10521 10530 10540 10548 10559 10568
10264 10271 10278 10287 10295 10305 10314 10323 10333 10343 10353 10363 10373 10382 10392 10401 10409 10417 10425 10432 10439 10446 10452 10458 10463 10469 10474 10478 10482 10485 10486 10488 10488 10488 10489 10489 10488 10486 10484 10482 10480 10479 10479 10480 10482 10485 10490 10497 10504 10512 10521 10524 10537 10544
10268 10275 10283 10292 10300 10309 10319 10329 10339 10349 10359 10369 10378 10389 10398 10407 10415 10423 10431 10439 10445 10452 10458 10463 10468 10473 10477 10480 10483 10485 10487 10487 10487 10489 10489 10489 10488 10486 10484 10481 10478 10476 10475 10475 10477 10479 10483 10488 10495 10502 10509 10516 10522 10528
10276 10282 10290 10298 10308 10317 10328 10337 10347 10356 10366 10376 10386 10396 10405 10414 10422 10431 10438 10445 10452 10457 10463 10468 10473 10477 10480 10483 10485 10486 10486 10487 10488 10489 10490 10489 10488 10487 10485 10484 10482 10480 10478 10477 10478 10480 10483 10486 10491 10497 10502 10508 10514 10519
10286 10293 10301 10310 10319 10329 10338 10348 10357 10367 10377 10386 10395 10405 10414 10422 10430 10438 10446 10452 10457 10463 10468 10472 10476 10479 10482 10484 10485 10486 10486 10487 10488 10489 10489 10489 10489 10488 10487 10486 10485 10483 10482 10482 10482 10483 10485 10488 10490 10494 10498 10502 10507 10512
10300 10307 10314 10322 10332 10340 10348 10358 10367 10377 10387 10396 10405 10414 10423 10431 10438 10446 10452 10457 10463 10468 10472 10476 10479 10481 10483 10484 10485 10486 10486 10487 10488 10489 10490 10490 10490 10489 10489 10488 10488 10488 10488 10488 10489 10489 10490 10492 10495 10497 10499 10502 10505 10508
10314 10321 10328 10337 10345 10353 10363 10372 10381 10390 10399 10408 10416 10424 10432 10439 10446 10452 10458 10463 10468 10472 10475 10478 10481 10483 10484 10485 10486 10487 10488 10489 10490 10492 10492 10492 10493 10493 10492 10492 10492 10492 10491 10492 10493 10494 10494 10495 10497 10499 10500 10503 10505 10507
10331 10338 10345 10353 10362 10370 10378 10386 10395 10403 10411 10419 10426 10433 10440 10447 10453 10458 10463 10467 10471 10475 10477 10480 10482 10484 10485 10486 10487 10489 10491 10492 10494 10495 10496 10496 10496 10497 10497 10497 10497 10497 10497 10498 10498 10498 10499 10500 10501 10502 10503 10505 10506 10507
10350 10357 10363 10371 10379 10386 10394 10402 10409 10416 10422 10429 10435 10441 10447 10453 10458 10462 10466 10470 10473 10476 10479 10482 10483 10484 10486 10489 10491 10493 10495 10496 10497 10499 10499 10500 10501 10502 10502 10502 10502 10502 10502 10502 10502 10502 10503 10504 10504 10504 10505 10505 10505 10506
10370 10375 10381 10388 10395 10402 10409 10415 10421 10427 10432 10438 10443 10449 10453 10458 10462 10465 10468 10471 10475 10478 10480 10482 10485 10487 10490 10492 10494 10496 10497 10499 10501 10502 10503 10503 10504 10504 10505 10505 10505 10505 10504 10504 10504 10503 10503 10503 10503 10503 10503 10502 10502 10502
10387 10392 10398 10403 10409 10415 10420 10425 10430 10435 10440 10445 10450 10454 10457 10461 10464 10467 10470 10473 10475 10478 10481 10485 10488 10491 10494 10496 10498 10500 10501 10502 10504 10505 10506 10506 10506 10506 10506 10505 10505 10504 10503 10502 10502 10501 10501 10501 10500 10500 10500 10499 10498 10496
10403 10408 10412 10417 10421 10426 10430 10435 10439 10443 10447 10451 10453 10456 10458 10461 10465 10468 10472 10475 10479 10482 10485 10488 10491 10494 10496 10498 10500 10502 10504 10505 10505 10506 10506 10506 10505 10505 10504 10504 10502 10501 10500 10499 10499 10499 10498 10497 10496 10495 10494 10492 10491 10488
10415 10419 10424 10427 10431 10435 10439 10442 10445 10448 10450 10453 10455 10458 10461 10466 10470 10473 10477 10479 10483 10486 10488 10491 10494 10497 10499 10501 10502 10503 10504 10504 10505 10505 10504 10504 10504 10503 10503 10501 10500 10499 10498 10497 10496 10494 10493 10492 10490 10488 10486 10484 10481 10478
10427 10430 10433 10436 10439 10442 10445 10447 10449 10452 10455 10458 10462 10465 10468 10471 10475 10479 10481 10484 10488 10490 10493 10496 10497 10498 10500 10501 10502 10502 10503 10503 10503 10503 10503 10502 10501 10500 10498 10498 10496 10495 10493 10492 10490 10488 10486 10484 10482 10479 10477 10474 10472 10469
10435 10438 10441 10443 10446 10448 10451 10454 10457 10460 10462 10465 10468 10471 10474 10477 10480 10483 10486 10488 10490 10492 10494 10495 10497 10498 10499 10500 10501 10501 10501 10501 10501 10500 10499 10498 10496 10495 10493 10492 10490 10488 10487 10485 10483 10481 10479 10476 10473 10470 10467 10465 10463 10461
10442 10444 10447 10450 10452 10455 10457 10460 10463 10465 10468 10470 10473 10475 10477 10480 10483 10485 10487 10489 10491 10493 10494 10495 10496 10497 10497 10498 10498 10498 10497 10497 10496 10496 10494 10492 10490 10488 10486 10484 10482 10481 10479 10477 10475 10473 10470 10467 10463 10460 10458 10457 10456 10455
10448 10450 10452 10455 10457 10459 10461 10463 10466 10468 10471 10473 10475 10478 10480 10482 10484 10486 10488 10489 10490 10492 10493 10494 10495 10495 10495 10494 10494 10493 10492 10491 10491 10489 10487 10485 10483 10481 10479 10477 10475 10473 10471 10469 10467 10464 10462 10459 10456 10454 10453 10452 10451 10450
10452 10454 10456 10457 10459 10462 10464 10466 10468 10470 10473 10475 10477 10479 10480 10482 10483 10485 10486 10487 10488 10489 10490 10490 10490 10490 10489 10488 10487 10486 10485 10484 10483 10481 10479 10477 10475 10473 10470 10468 10466 10464 10462 10460 10458 10456 10454 10453 10451 10450 10448 10447 10445 10444